Location: Unspecified
(55.7024°N, 37.6611°E)
Time: 22:19:16
(UTC+03:00)

S-56A Canister/Altair - All Passes

Search period start: 17 June 2025 00:00
Search period end: 27 June 2025 00:00
Orbit: 632 x 2486 km, 38.9° (Epoch: 16 June)

Date Brightness Start Highest point End Pass type
(mag) Time Alt. Az. Time Alt. Az. Time Alt. Az.
17 Jun - 02:46:13 10° SSE 02:53:30 16° SE 03:01:14 10° ESE visible
17 Jun - 04:44:49 10° SSW 04:56:27 32° SSE 05:08:32 10° ESE daylight
17 Jun - 06:47:34 10° WSW 07:00:36 40° S 07:12:57 10° ESE daylight
17 Jun - 08:52:23 10° WSW 09:04:40 33° SSW 09:15:24 10° SSE daylight
17 Jun - 10:59:52 10° WSW 11:07:23 17° SW 11:14:06 10° SSW daylight
18 Jun - 02:12:57 10° SSE 02:18:39 14° SE 02:24:44 10° ESE visible
18 Jun - 04:10:14 10° SSW 04:21:18 30° SSE 04:33:09 10° E daylight
18 Jun - 06:12:29 10° WSW 06:25:19 39° S 06:37:58 10° ESE daylight
18 Jun - 08:16:55 10° WSW 08:29:31 35° SSW 08:40:51 10° SE daylight
18 Jun - 10:23:40 10° W 10:32:34 19° SW 10:40:29 10° S daylight
19 Jun - 01:40:42 10° SE 01:43:54 11° SE 01:47:14 10° ESE visible
19 Jun - 03:35:48 10° SSW 03:46:11 28° SSE 03:57:38 10° E daylight
19 Jun - 05:37:31 10° SW 05:50:01 39° S 06:02:52 10° ESE daylight
19 Jun - 07:41:34 10° WSW 07:54:19 36° SSW 08:06:12 10° SE daylight
19 Jun - 09:47:42 10° W 09:57:39 22° SW 10:06:36 10° S daylight
20 Jun - 03:01:32 10° SSW 03:11:09 25° SE 03:22:00 10° E daylight
20 Jun - 05:02:39 10° SW 05:14:45 38° SSE 05:27:40 10° ESE daylight
20 Jun - 07:06:19 10° WSW 07:19:03 38° SSW 07:31:24 10° SE daylight
20 Jun - 09:11:57 10° W 09:22:41 25° SW 09:32:29 10° SSE daylight
21 Jun - 02:27:26 10° S 02:36:12 23° SE 02:46:12 10° E visible
21 Jun - 04:27:55 10° SW 04:39:31 37° SSE 04:52:22 10° ESE daylight
21 Jun - 06:31:10 10° WSW 06:43:47 39° S 06:56:29 10° SE daylight
21 Jun - 08:36:20 10° W 08:47:37 27° SSW 08:58:10 10° SSE daylight
21 Jun - 10:47:32 10° WSW 10:49:57 11° SW 10:52:18 10° SW daylight
22 Jun - 01:53:33 10° S 02:01:19 20° SE 02:10:14 10° E visible
22 Jun - 03:53:18 10° SW 04:04:20 35° SSE 04:16:57 10° ESE daylight
22 Jun - 05:56:08 10° WSW 06:08:30 39° S 06:21:28 10° SE daylight
22 Jun - 08:00:52 10° W 08:12:31 29° SSW 08:23:42 10° SSE daylight
22 Jun - 10:09:34 10° WSW 10:15:10 13° SW 10:20:32 10° SSW daylight
23 Jun - 01:19:57 10° S 01:26:32 17° SE 01:34:02 10° ESE visible
23 Jun - 03:18:48 10° SW 03:29:12 33° SSE 03:41:27 10° ESE daylight
23 Jun - 05:21:12 10° WSW 05:33:13 39° S 05:46:20 10° ESE daylight
23 Jun - 07:25:32 10° WSW 07:37:21 31° SSW 07:49:05 10° SSE daylight
23 Jun - 09:32:57 10° WSW 09:40:19 16° SW 09:47:22 10° SSW daylight
24 Jun - 00:46:45 10° SSE 00:51:48 14° SE 00:57:28 10° ESE visible
24 Jun - 02:44:27 10° SSW 02:54:09 30° SSE 03:05:51 10° ESE visible
24 Jun - 04:46:23 10° WSW 04:57:57 39° S 05:11:05 10° ESE daylight
24 Jun - 06:50:19 10° WSW 07:02:08 33° SSW 07:14:19 10° SE daylight
24 Jun - 08:56:51 10° WSW 09:05:23 18° SW 09:13:41 10° S daylight
25 Jun - 00:14:39 10° SE 00:17:11 11° SE 00:19:53 10° ESE visible
25 Jun - 02:10:12 10° SSW 02:19:10 28° SSE 02:30:09 10° E visible
25 Jun - 04:11:40 10° SW 04:22:44 38° S 04:35:45 10° ESE daylight
25 Jun - 06:15:14 10° WSW 06:26:55 34° SSW 06:39:25 10° SE daylight
25 Jun - 08:21:03 10° W 08:30:24 20° SW 08:39:39 10° S daylight
26 Jun - 01:36:06 10° SSW 01:44:17 25° SSE 01:54:21 10° E visible
26 Jun - 03:37:04 10° SW 03:47:34 37° S 04:00:19 10° ESE daylight
26 Jun - 05:40:15 10° WSW 05:51:42 35° SSW 06:04:24 10° SE daylight
26 Jun - 07:45:29 10° W 07:55:22 23° SW 08:05:24 10° S daylight
